Terug naar catalogus

CZ-6A DEB

ActiefPO
NORAD 60876·DEBRIS·🇨🇳 China

Gelanceerd Aug 6, 2024 vanaf Taiyuan Satellite Launch Center

Loading…

Volgende Passages (komende 24 uur)

TLE

VersSource: Space-Track

Epoch: Sep 13, 2026, 13:37 UTC

1 60876U 24140KF  26256.56746860  .00000969  00000-0  44529-3 0  9992
2 60876  89.0260 267.6497 0054710 256.3485 103.1609 14.19727592107471

Volg CZ-6A DEB in realtime met AllMySat

Download on the App Store